SCP
0 0 0 0 0 0 0 0 0 0 0 0 0 0 0 0 0 0 0 0 0 0 0 0 0 0 0 0 0 0 0 0 0 0 0 0 0 0 0 0 0 0 0 0
0 0 0 0 0 0 0 0 0 0 0 0 0 0 0 0 0 0 0 0 0 0 0 0 0 0 0 0 0 0 0 0 0 0 0 0 0 0 0 0 0 0 0 0
0 0 0 0 0 0 0 0 0 0 0 0 0 0 0 0 0 0 0 0 0 0 0 0 0 0 0 0 0 0 0 0 0 0 0 0 0 0 0 0 0 0 0 0
0 0 0 0 0 0 0 0 0 0 0 0 0 0 0 0 0 0 0 0 0 0 0 0 0 0 0 0 0 0 0 0 0 0 0 0 0 0 0 0 0 0 0 0
0 0 0 0 0 0 0 0 0 0 0 0 0 0 0 0 0 0 0 0 0 0 0 0 0 0 0 0 0 0 0 0 0 0 0 0 0 0 0 0 0 0 0 0
0 0 0 0 0 0 0 0 0 0 0 0 0 0 0 0 0 0 0 0 0 0 0 0 0 0 0 0 0 0 0 0 0 0 0 0 0 0 0 0 0 0 0 0
0 0 0 0 0 0 0 0 0 0 0 0 0 0 0 0 0 0 0 0 0 0 0 0 0 0 0 0 0 0 0 0 0 0 0 0 0 0 0 0 0 0 0 0
0 0 0 0 0 0 0 0 0 0 0 0 0 0 0 0 0 0 0 0 0 0 0 0 0 0 0 0 0 0 0 0 0 0 0 0 0 0 0 0 0 0 0 0
0 0 0 0 0 0 0 0 0 -0 -0 -0 0 0 0 0 0 0 0 0 0 0 0 0 0 0 0 0 0 0 0 0 0 0 0 0 0 0 0 0 0 0 0 0
0 0 0 0 0 0 0 0 0 -0 -0 -0 -0 0 0 0 0 0 0 0 0 0 0 0 0 0 0 0 0 0 0 0 0 0 0 0 0 0 0 0 0 0 0 0
0 0 0 0 0 0 0 0 0 0 -0 -0 0 0 0 0 0 0 0 0 0 0 0 0 0 0 0 0 0 0 0 0 0 0 0 0 0 0 0 0 0 0 0 0
0 0 0 0 0 0 0 0 0 0 0 0 0 0 0 0 0 0 0 0 0 0 0 0 0 0 0 0 0 0 0 0 0 0 0 0 0 0 0 0 0 0 0 0
0 0 0 0 0 0 0 0 0 0 0 0 0 0 0 0 0 0 0 0 0 0 0 0 0 0 0 0 0 0 0 0 0 0 0 0 0 0 0 0 0 0 0 0
0 0 0 0 0 0 0 0 0 0 0 0 0 0 0 0 0 0 0 0 0 0 0 0 0 0 0 0 0 0 0 0 0 0 0 0 0 0 0 0 0 0 0 0
0 0 0 0 0 0 0 0 0 0 0 0 0 0 0 0 0 0 0 0 0 0 0 0 0 0 0 0 0 0 0 0 0 0 0 0 0 0 0 0 0 0 0 0
0 0 0 0 0 0 0 0 0 0 0 0 0 0 0 0 0 0 0 0 0 0 0 0 0 0 0 0 0 0 0 0 0 0 0 0 0 0 0 0 0 0 0 0
0 0 0 0 0 0 0 0 0 0 0 0 0 0 0 0 0 0 0 0 0 0 0 0 0 0 0 0 0 0 0 0 0 0 0 0 0 0 0 0 0 0 0 0
0 0 0 0 0 0 0 0 0 0 0 0 0 0 0 0 0 0 0 0 0 0 0 0 0 0 0 0 0 0 0 0 0 0 0 0 0 0 0 0 0 0 0 0
0 0 0 0 0 0 0 0 0 0 0 0 0 0 0 0 0 0 0 0 0 0 0 0 -0 -0 0 0 0 0 0 0 0 0 0 0 0 0 0 0 0 0 0 0
0 0 0 0 0 0 0 0 0 0 0 0 0 0 0 0 0 0 0 0 0 0 0 0 -0 -0 0 0 0 0 0 0 0 0 0 0 0 0 0 0 0 0 0 0
0 0 0 0 0 0 0 0 0 0 0 0 0 0 0 0 0 0 0 0 0 0 0 0 0 0 0 0 0 0 0 0 0 0 0 0 0 0 0 0 0 0 0 0
0 0 0 0 0 0 0 0 0 0 0 0 0 0 0 0 0 0 0 0 0 0 0 0 0 0 0 0 0 0 0 0 0 0 0 0 0 0 0 0 0 0 0 0
0 0 0 -0 -0 -0 0 0 0 0 0 0 0 0 0 0 0 0 0 0 0 0 0 0 0 0 0 0 0 0 0 0 0 0 0 0 0 0 0 0 0 0 0 0
0 0 0 -0 -0 -0 -0 0 0 0 0 0 0 0 0 0 0 0 0 0 0 0 0 0 0 0 0 0 0 0 0 0 0 0 0 0 0 0 0 0 0 0 0 0
0 0 -0 -0 -0 -0 0 0 0 0 0 0 0 0 0 0 0 0 0 0 0 0 0 0 0 0 0 0 0 0 0 0 0 0 0 0 0 0 0 0 0 0 0 0
0 0 -0 -0 -0 -0 0 0 0 0 0 0 0 0 0 0 0 0 0 0 0 0 0 0 0 0 0 0 0 0 0 0 0 0 0 0 0 0 0 0 0 0 0 0
0 0 -0 -0 0 0 0 0 0 0 0 0 0 0 0 0 0 0 0 0 0 0 0 0 0 0 0 0 0 0 0 0 0 0 0 0 0 0 0 0 0 0 0 0
Wind_Speed
5 5 4 5 9 11 12 10 7 6 6 5 2 1 2 2 3 4 4 4 4 4 4 4 4 4 4 4 3 4 4 4 4 4 4 3 3 3 2 2 2 1 1 1
5 4 4 6 8 11 12 12 10 8 8 3 2 2 2 2 3 3 3 3 4 4 4 4 4 4 4 4 4 4 5 4 4 4 4 3 3 3 2 2 1 1 1 0
3 3 4 7 9 11 10 9 9 10 7 2 2 2 2 2 2 2 2 3 3 3 3 3 4 4 4 4 4 5 4 4 3 4 4 3 3 2 2 1 1 1 0 0
2 1 6 3 1 3 7 6 4 3 1 1 0 2 3 3 2 3 3 2 2 2 2 3 3 4 4 5 5 4 4 3 3 3 3 3 2 2 1 1 0 0 0 0
2 3 5 2 2 1 3 3 1 2 1 1 2 2 3 4 3 3 3 3 3 2 2 3 3 4 4 4 4 4 4 3 3 3 3 2 2 1 1 0 0 0 1 1
3 3 3 1 4 4 0 1 3 2 2 2 2 1 0 3 4 5 4 3 3 3 3 3 3 4 4 4 3 3 3 3 3 3 3 2 2 1 1 0 0 1 1 1
4 3 2 3 5 3 1 2 4 3 2 2 1 1 2 3 4 4 4 3 3 3 2 2 3 4 4 3 2 2 2 3 2 2 2 2 1 1 1 0 0 1 2 2
3 3 3 4 3 2 1 3 4 4 3 4 3 3 4 4 3 3 3 3 3 3 2 2 3 3 3 2 2 2 3 2 2 2 1 1 2 1 1 0 0 1 2 2
2 2 1 2 3 2 3 3 3 3 4 3 3 3 3 3 3 3 3 3 3 3 3 3 3 3 3 2 2 3 3 2 2 2 1 1 1 1 0 0 1 1 2 2
1 1 1 3 3 4 4 4 4 4 4 4 3 3 3 3 3 3 3 3 3 3 3 3 3 3 3 2 2 3 3 2 2 2 1 1 1 0 0 0 1 2 2 3
1 2 3 3 4 4 5 6 6 5 5 4 4 3 3 2 3 3 3 3 3 3 3 3 3 3 3 2 2 3 3 2 2 1 1 1 1 1 1 1 2 3 2 2
2 2 1 3 4 5 5 5 4 4 4 4 3 3 3 3 3 3 3 3 3 3 3 3 3 3 3 2 2 2 2 1 1 1 1 0 0 2 3 3 4 5 5 5
2 3 2 3 5 5 4 4 4 4 3 3 3 3 3 3 3 3 3 3 3 3 2 2 3 3 2 2 2 2 1 1 1 0 0 0 0 1 2 3 5 5 6 7
3 3 3 3 3 4 4 4 4 4 4 4 3 4 3 3 3 3 3 2 2 2 2 2 3 3 3 3 3 2 1 1 1 0 0 0 1 1 1 2 3 3 5 7
4 3 1 2 2 3 3 3 4 4 4 4 4 4 4 3 3 3 2 2 2 3 3 3 3 3 3 3 2 2 1 0 0 0 0 1 1 1 1 2 2 3 3 4
3 3 3 3 3 3 4 3 3 3 4 4 4 4 4 3 3 3 3 3 3 3 2 3 2 2 2 2 2 2 1 2 2 1 1 1 1 1 1 2 2 3 3 3
2 2 3 3 3 3 3 3 3 3 3 3 3 3 3 3 3 3 3 3 3 2 3 2 2 3 3 3 2 2 1 1 2 1 1 1 1 1 2 2 2 3 3 5
2 2 2 2 2 3 3 3 3 3 3 2 2 2 2 2 2 2 2 3 3 3 3 3 3 3 3 3 2 1 1 1 1 1 1 1 1 1 2 2 2 3 4 5
4 4 4 4 3 3 2 3 3 3 3 3 3 3 3 3 3 2 2 3 3 3 3 3 5 4 3 3 3 1 1 1 1 1 1 2 2 2 2 2 3 3 4 4
4 4 4 4 4 3 3 3 3 3 3 3 3 3 3 3 3 3 3 2 2 2 2 3 3 2 2 2 3 1 1 1 1 1 1 1 1 2 2 3 3 3 3 4
4 4 4 4 4 4 3 3 3 2 3 3 2 2 2 2 2 2 2 2 2 3 3 4 3 2 2 3 3 1 1 1 1 1 1 1 2 2 2 3 3 4 4 4
3 3 3 3 3 3 3 3 3 2 3 3 3 2 2 2 2 2 2 1 2 4 3 2 2 4 5 5 2 1 1 1 1 1 1 1 2 2 3 3 3 4 4 4
2 3 3 3 3 2 3 3 2 2 2 2 2 2 2 2 2 1 2 2 2 5 4 2 4 6 7 4 2 1 1 1 1 1 1 2 2 2 3 3 3 3 4 3
2 3 2 2 2 2 3 2 2 2 2 2 1 1 1 2 2 1 1 4 6 6 3 4 7 7 7 3 2 2 1 1 1 1 2 2 2 2 3 3 3 3 3 4
2 2 2 2 2 2 2 2 2 2 2 2 2 2 1 1 1 2 2 3 5 5 3 4 7 7 4 2 2 2 2 2 2 2 2 2 2 2 3 3 3 3 3 3
1 1 1 1 1 1 1 1 1 1 2 2 2 2 2 1 2 2 2 2 3 5 3 2 3 4 2 2 2 2 2 3 3 2 2 2 3 3 3 3 4 3 3 4
1 1 1 1 1 1 1 1 1 1 2 1 2 2 2 2 2 2 2 2 2 3 2 2 2 2 2 2 2 2 2 2 2 2 2 3 3 3 3 4 4 3 3 3
Wind_Direction
284 292 242 238 225 220 225 230 234 246 250 258 260 146 118 95 104 112 115 114 119 123 123 122 119 118 118 118 115 119 119 118 121 115 109 109 110 111 107 102 102 106 110 109
277 277 273 263 242 229 231 235 244 260 267 289 351 40 54 66 84 106 124 124 121 118 124 128 130 129 123 122 123 114 115 119 117 116 116 116 119 118 112 107 106 106 120 122
254 272 296 258 234 224 226 226 228 240 249 286 330 12 16 57 88 110 120 124 126 132 138 135 134 133 133 128 118 117 121 123 121 122 120 122 118 107 111 111 97 79 58 91
259 242 236 242 319 242 232 234 236 255 263 259 117 57 43 44 73 75 63 72 92 105 112 114 113 115 114 114 117 120 122 121 119 121 125 122 117 120 108 92 82 82 317 318
217 231 257 260 330 307 229 238 254 249 289 25 81 64 32 32 48 69 67 66 69 74 93 105 111 115 115 114 119 121 126 129 131 133 133 132 137 139 118 88 19 329 324 320
226 227 237 341 341 335 299 252 9 17 27 41 70 146 115 33 42 50 52 54 57 59 72 92 104 111 112 118 121 129 134 130 126 134 143 146 148 135 88 78 347 351 326 308
233 241 270 342 327 352 161 265 349 9 27 53 54 75 93 60 49 52 52 53 60 67 77 89 99 108 113 112 124 124 113 118 123 126 132 137 123 113 111 78 11 320 302 300
208 224 257 3 21 39 351 356 7 27 49 66 72 68 69 61 51 48 53 53 57 66 70 76 87 103 110 114 111 102 104 109 110 108 104 97 103 90 95 78 305 294 299 303
185 199 346 28 34 16 21 18 10 33 45 73 78 69 64 58 49 48 57 57 58 73 72 72 81 97 114 113 108 108 104 104 105 96 87 99 115 112 85 19 314 299 297 299
59 350 23 20 10 25 36 33 26 38 53 62 64 66 61 54 46 50 52 53 59 69 69 60 63 72 87 94 105 114 113 105 101 95 74 50 44 63 199 277 284 292 295 298
264 304 342 8 24 29 35 35 35 37 43 52 59 50 51 58 60 51 54 56 60 70 71 63 63 66 65 71 95 103 101 97 93 94 93 55 13 336 301 263 259 280 274 280
272 313 312 334 4 22 28 22 22 28 32 35 49 51 46 53 53 53 59 63 68 67 66 56 57 62 54 45 66 93 94 92 99 100 79 73 25 352 350 330 322 316 312 308
330 349 8 11 17 18 17 16 24 28 34 36 35 49 59 59 51 53 59 63 64 68 64 55 56 54 50 51 57 73 88 86 83 88 93 43 324 320 322 330 328 323 318 314
19 20 3 358 358 4 9 21 37 42 41 45 46 49 54 56 50 49 51 52 55 67 65 57 55 46 36 48 53 50 58 66 60 78 55 303 286 289 286 297 310 312 310 310
5 6 358 356 10 9 17 40 47 40 34 40 46 50 52 52 44 37 36 48 57 61 56 51 50 34 27 37 35 22 34 65 69 45 336 302 301 302 298 298 301 305 312 311
349 9 27 23 19 22 31 38 45 32 27 32 36 35 37 42 41 38 36 44 58 55 44 48 45 23 23 31 24 14 27 7 5 8 355 339 325 311 307 305 306 306 304 304
346 351 5 9 13 22 27 33 44 36 29 33 28 24 36 45 46 39 29 33 50 50 44 42 27 17 21 24 18 3 1 352 355 4 351 324 313 304 303 303 303 304 301 303
15 14 20 30 30 28 29 37 42 37 31 26 25 33 47 57 54 32 20 28 37 39 39 32 21 16 12 6 4 358 347 344 345 337 327 321 314 305 305 302 301 302 304 308
37 41 40 40 38 41 41 38 37 33 28 30 37 40 43 42 38 35 31 33 34 25 11 9 3 12 360 352 359 357 345 337 335 327 315 310 319 306 303 302 299 299 303 309
42 44 45 43 41 43 44 41 41 35 29 35 44 47 41 28 22 19 21 23 25 14 352 350 359 358 352 341 350 341 325 316 315 316 315 309 308 310 308 304 304 305 308 309
39 41 42 43 42 38 38 37 41 37 27 32 45 44 33 16 9 10 16 7 4 7 358 355 360 341 332 331 339 334 324 322 318 312 314 313 312 310 308 308 309 311 312 313
31 39 37 37 42 35 30 31 35 37 35 33 36 38 32 19 11 8 8 348 340 345 354 348 340 333 334 339 343 335 328 322 320 318 316 313 309 306 307 309 310 310 311 311
37 40 35 32 35 30 27 30 33 40 39 29 25 24 17 350 343 349 345 343 345 344 350 336 329 335 341 352 348 343 337 339 332 322 313 305 301 301 302 306 308 309 310 310
42 39 33 28 35 43 38 28 32 38 32 14 13 11 2 355 352 354 340 331 336 338 344 333 338 341 351 6 357 353 350 341 324 311 305 301 301 303 303 304 305 305 305 307
46 38 33 32 37 39 37 33 32 30 31 27 15 9 5 1 342 334 332 328 332 341 346 343 345 349 360 355 351 349 345 329 315 314 310 311 309 308 306 304 304 305 307 308
40 37 35 26 17 17 19 23 25 21 25 19 9 9 7 0 345 334 336 337 337 341 348 344 340 343 350 348 346 340 334 327 329 330 319 313 307 305 305 306 304 303 304 304
43 42 36 24 19 26 30 29 21 11 12 8 351 348 349 346 345 345 341 339 339 339 337 335 335 335 339 342 337 331 327 322 319 314 311 307 302 300 300 301 301 302 305 306